星链-4650 (STARLINK-4650 )

导读 | 豆包AI

STARLINK-4650是美国太空探索技术公司(SpaceX)星链(Starlink)星座中的一颗卫星,于2022年8月28日发射。星链是全球规模最大的低轨卫星互联网星座,截至2024年6月已有超6000颗卫星在轨运营,为全球传统网络覆盖不足的地区提供高速互联网服务,后续还开展了与运营商合作的卫星蜂窝通信测试。

Basic Information
目录编号:
53611
目录名称:
STARLINK-4650
国际标识:
2022-104Z
轨道中心:
EARTH
卫星名称:
星链-4650
卫星全名:
星链-4650 (STARLINK-4650 )
卫星状态:
已陨落 最后检测时间 2025-08-15
发射日期:
2022-08-28 UTC
国别 :
美国 (US)
星等 :
--
Orbit Information
数据来源 国际轨道数据
星历时间: 2025-08-15T14:16:44+0800
轨道信息已过期258天
半长轴: 6545.953km
偏心率: 0.0055899
轨道倾角: 53.152°
近地点辐角 357.479°
升交点赤经 339.880°
平近点角 82.047°
近地点: 131.226km
远地点: 204.41km
周期: 87.845分钟
每日圈数: 16.392436
Detailed Information
固有亮度:
5
最大亮度:
2.5
卫星平台:
Starlink v1.5
覆盖范围:
全球
运营商:
太空探索技术公司
运营商所在国:
美国
制造商(研发单位):
太空探索技术公司
制造商所在国:
美国
使用方式:
暂无
Satellite Introduction
星链(Starlink)计划是由太空探索技术公司(SpaceX)提出的一个巨型低轨卫星互联网星座项目,计划在2019年至2024年间在太空搭建由约1.2万颗卫星组成的“星链”网络,其中1584颗将部署在地球上空550千米处的近地轨道,并从2020年开始工作。该卫星仍在工作。